Weather History for Wildwood, NJ

Change the Weather History Date:

Saturday, June 7, 2014

  Actual Average Record
Temperature  
Mean Temperature 68 °F -  
Max Temperature 78 °F 72 °F 91 °F (1999)
Min Temperature 57 °F 58 °F 51 °F (1997)
Cooling Degree Days 2    
Growing Degree Days 18 (Base 50)    
Moisture  
Dew Point 56 °F    
Average Humidity 67    
Maximum Humidity 88    
Minimum Humidity 42    
Precipitation  
Precipitation 0.00 in - - ()
Sea Level Pressure  
Sea Level Pressure 30.00 in    
Wind  
Wind Speed 3 mph (SW)    
Max Wind Speed 13 mph    
Max Gust Speed 16 mph    
Visibility 10 miles    
Events      
Averages and records for this station are not official NWS values.
T = Trace of Precipitation, MM = Missing Value Source: NWS Daily Summary

Daily Weather History Graph

Daily Weather History Graph

Search for Another Location

Airport:

Trip Planner

Search our weather history database for the weather conditions in past years. The results will help you decide how hot, cold, wet, or windy it might be!

Date:

Astronomy

Jun. 07, 2014 Rise Set
Actual Time 5:34 AM EDT 8:23 PM EDT
Civil Twilight 5:02 AM EDT 8:55 PM EDT
Nautical Twilight 4:22 AM EDT 9:35 PM EDT
Astronomical Twilight 3:36 AM EDT 10:20 PM EDT
Moon 2:41 PM EDT (6/7) 1:51 AM EDT (6/7)
Length of Visible Light 15h 52m
Length of Day
14h 49m
Waxing Gibbous, 67% of the Moon is Illuminated
Jun 7
Waxing Gibbous
Jun 13
Full
Jun 19
Last Quarter
Jun 27
New
Jul 5
First Quarter

Hourly Weather History & Observations

Time (EDT) Temp. Dew Point Humidity Pressure Visibility Wind Dir Wind Speed Gust Speed Precip Events Conditions
12:15 AM 60.8 °F 55.4 °F 82% 29.99 in 10.0 mi Calm Calm - N/A   Clear
12:35 AM 60.8 °F 53.6 °F 77% 29.98 in 10.0 mi Calm Calm - N/A   Clear
12:55 AM 60.8 °F 55.4 °F 82% 29.98 in 10.0 mi Calm Calm - N/A   Clear
1:15 AM 59.0 °F 55.4 °F 88% 29.99 in 10.0 mi WSW 4.6 mph - N/A   Clear
1:35 AM 60.8 °F 55.4 °F 82% 29.98 in 10.0 mi Calm Calm - N/A   Clear
1:55 AM 60.8 °F 53.6 °F 77% 29.98 in 10.0 mi Calm Calm - N/A   Clear
2:15 AM 60.8 °F 53.6 °F 77% 29.98 in 10.0 mi Calm Calm - N/A   Clear
2:35 AM 59.0 °F 53.6 °F 82% 29.98 in 10.0 mi Calm Calm - N/A   Clear
2:55 AM 59.0 °F 53.6 °F 82% 29.97 in 10.0 mi Calm Calm - N/A   Clear
3:15 AM 57.2 °F 53.6 °F 88% 29.97 in 10.0 mi Calm Calm - N/A   Clear
3:35 AM 57.2 °F 53.6 °F 88% 29.98 in 10.0 mi Calm Calm - N/A   Clear
3:55 AM 57.2 °F 53.6 °F 88% 29.98 in 10.0 mi Calm Calm - N/A   Clear
4:15 AM 57.2 °F 53.6 °F 88% 29.99 in 10.0 mi Calm Calm - N/A   Clear
4:35 AM 57.2 °F 53.6 °F 88% 29.99 in 10.0 mi Calm Calm - N/A   Clear
4:55 AM 57.2 °F 53.6 °F 88% 29.98 in 10.0 mi Calm Calm - N/A   Clear
5:15 AM 57.2 °F 53.6 °F 88% 29.98 in 10.0 mi Calm Calm - N/A   Clear
5:35 AM 57.2 °F 53.6 °F 88% 29.99 in 10.0 mi Calm Calm - N/A   Clear
5:55 AM 57.2 °F 53.6 °F 88% 29.99 in 10.0 mi Calm Calm - N/A   Clear
6:15 AM 57.2 °F 53.6 °F 88% 30.00 in 10.0 mi Calm Calm - N/A   Clear
6:35 AM 59.0 °F 55.4 °F 88% 30.00 in 10.0 mi Calm Calm - N/A   Clear
6:55 AM 60.8 °F 55.4 °F 82% 30.01 in 10.0 mi Calm Calm - N/A   Clear
7:15 AM 64.4 °F 60.8 °F 88% 30.02 in 10.0 mi Calm Calm - N/A   Clear
7:35 AM 66.2 °F 60.8 °F 83% 30.02 in 10.0 mi NNW 3.5 mph - N/A   Clear
8:15 AM 69.8 °F 59.0 °F 68% 30.02 in 10.0 mi NNW 4.6 mph - N/A   Clear
9:15 AM 71.6 °F 53.6 °F 53% 30.03 in 10.0 mi NNW 5.8 mph - N/A   Clear
9:35 AM 71.6 °F 55.4 °F 57% 30.04 in 10.0 mi WNW 5.8 mph - N/A   Clear
9:55 AM 71.6 °F 53.6 °F 53% 30.04 in 10.0 mi NW 5.8 mph - N/A   Clear
10:15 AM 73.4 °F 53.6 °F 50% 30.04 in 10.0 mi North 6.9 mph - N/A   Clear
10:35 AM 73.4 °F 53.6 °F 50% 30.04 in 10.0 mi NW 4.6 mph - N/A   Clear
10:55 AM 73.4 °F 53.6 °F 50% 30.04 in 10.0 mi West 9.2 mph - N/A   Clear
11:15 AM 73.4 °F 51.8 °F 47% 30.04 in 10.0 mi WNW 6.9 mph - N/A   Clear
11:35 AM 75.2 °F 53.6 °F 47% 30.04 in 10.0 mi NW 4.6 mph - N/A   Clear
11:55 AM 75.2 °F 53.6 °F 47% 30.04 in 10.0 mi West 4.6 mph - N/A   Clear
12:15 PM 75.2 °F 53.6 °F 47% 30.04 in 10.0 mi West 8.1 mph - N/A   Clear
12:35 PM 75.2 °F 53.6 °F 47% 30.04 in 10.0 mi West 6.9 mph - N/A   Clear
12:55 PM 75.2 °F 53.6 °F 47% 30.03 in 10.0 mi West 9.2 mph - N/A   Clear
1:15 PM 75.2 °F 51.8 °F 44% 30.03 in 10.0 mi West 12.7 mph - N/A   Clear
1:35 PM 75.2 °F 51.8 °F 44% 30.02 in 10.0 mi West 9.2 mph 16.1 mph N/A   Clear
1:55 PM 75.2 °F 53.6 °F 47% 30.01 in 10.0 mi West 10.4 mph - N/A   Clear
2:15 PM 77.0 °F 53.6 °F 44% 30.00 in 10.0 mi WNW 10.4 mph - N/A   Clear
2:35 PM 77.0 °F 53.6 °F 44% 30.00 in 10.0 mi West 9.2 mph - N/A   Clear
2:55 PM 77.0 °F 55.4 °F 47% 29.99 in 10.0 mi West 10.4 mph - N/A   Clear
3:15 PM 78.8 °F 55.4 °F 44% 29.99 in 10.0 mi West 8.1 mph - N/A   Clear
3:35 PM 78.8 °F 55.4 °F 44% 29.99 in 10.0 mi West 10.4 mph - N/A   Clear
3:55 PM 78.8 °F 55.4 °F 44% 29.98 in 10.0 mi West 10.4 mph - N/A   Clear
4:15 PM 78.8 °F 55.4 °F 44% 29.98 in 10.0 mi West 8.1 mph - N/A   Clear
4:35 PM 78.8 °F 53.6 °F 42% 29.98 in 10.0 mi West 5.8 mph - N/A   Clear
4:55 PM 77.0 °F 57.2 °F 50% 29.98 in 10.0 mi SE 8.1 mph - N/A   Clear
5:15 PM 77.0 °F 57.2 °F 50% 29.97 in 10.0 mi ESE 5.8 mph - N/A   Clear
5:35 PM 78.8 °F 57.2 °F 47% 29.97 in 10.0 mi SSE 4.6 mph - N/A   Clear
5:55 PM 77.0 °F 57.2 °F 50% 29.97 in 10.0 mi ESE 6.9 mph - N/A   Clear
6:15 PM 75.2 °F 59.0 °F 57% 29.96 in 10.0 mi SE 10.4 mph - N/A   Clear
6:35 PM 75.2 °F 60.8 °F 61% 29.96 in 10.0 mi SSE 9.2 mph - N/A   Clear
6:55 PM 75.2 °F 60.8 °F 61% 29.97 in 10.0 mi SSE 5.8 mph - N/A   Clear
7:15 PM 73.4 °F 59.0 °F 61% 29.96 in 10.0 mi SE 5.8 mph - N/A   Clear
7:35 PM 71.6 °F 59.0 °F 64% 29.97 in 10.0 mi SE 8.1 mph - N/A   Clear
7:55 PM 69.8 °F 59.0 °F 68% 29.97 in 10.0 mi SE 9.2 mph - N/A   Clear
8:15 PM 68.0 °F 59.0 °F 73% 29.98 in 10.0 mi SE 8.1 mph - N/A   Clear
8:35 PM 66.2 °F 59.0 °F 78% 29.98 in 10.0 mi SE 6.9 mph - N/A   Clear
8:55 PM 66.2 °F 59.0 °F 78% 29.99 in 10.0 mi SE 5.8 mph - N/A   Clear
9:15 PM 64.4 °F 59.0 °F 83% 29.99 in 10.0 mi SE 5.8 mph - N/A   Clear
9:35 PM 64.4 °F 59.0 °F 83% 30.01 in 10.0 mi SE 5.8 mph - N/A   Clear
9:55 PM 64.4 °F 59.0 °F 83% 30.01 in 10.0 mi SSE 5.8 mph - N/A   Clear
10:15 PM 64.4 °F 59.0 °F 83% 30.01 in 10.0 mi SE 5.8 mph - N/A   Clear
10:35 PM 64.4 °F 59.0 °F 83% 30.01 in 10.0 mi SSE 5.8 mph - N/A   Clear
10:55 PM 64.4 °F 59.0 °F 83% 30.00 in 10.0 mi SE 4.6 mph - N/A   Clear
11:15 PM 64.4 °F 59.0 °F 83% 30.01 in 10.0 mi South 5.8 mph - N/A   Clear
11:35 PM 64.4 °F 59.0 °F 83% 30.00 in 10.0 mi South 5.8 mph - N/A   Clear
11:55 PM 64.4 °F 59.0 °F 83% 30.00 in 10.0 mi South 4.6 mph - N/A   Clear